Simultaneous Nadir Overpasses (SNOs) Predictions

Prediction of SNOs between METOP-B and NOAA-19 Satellite Orbit:

Table of predicted SNOs for the next 14.0 days since TLE Epoch: 5/27/2023
Index Date (METOP-B) Time (METOP-B) Lat,Lon (METOP-B) SZA (METOP-B ) Date (NOAA-19) Time (NOAA-19) Lat,Lon (NOAA-19) SZA (NOAA-19 ) Distance(km) Time Diff (sec)
1 06/01/2023 09:45:41 80.92, 67.77 60.56 06/01/2023 09:44:37 80.92, 67.86 60.55 1.60 64
2 06/01/2023 10:36:22 -80.92,-124.86 119.44 06/01/2023 10:35:38 -80.92,-124.81 119.45 0.83 44
3 06/01/2023 11:27:02 80.93, 42.64 60.58 06/01/2023 11:26:35 80.92, 42.78 60.58 2.47 27
4 06/01/2023 12:17:44 -80.91,-150.34 119.47 06/01/2023 12:17:37 -80.92,-150.27 119.46 1.64 7
5 06/01/2023 13:08:24 80.92, 17.15 60.55 06/01/2023 13:08:34 80.92, 17.33 60.58 3.09 10
6 06/01/2023 13:59:05 -80.92,-175.47 119.45 06/01/2023 13:59:35 -80.93,-175.35 119.43 2.09 30
7 06/01/2023 14:49:45 80.93, -7.98 60.57 06/01/2023 14:50:33 80.93, -8.13 60.57 2.73 48



Historial Predications of SNOs between METOP-B and NOAA-19
